Location: Moscow
(30.9132°N, 94.8252°W)
Time: 11:21:32
(UTC+00:00)

Cosmos 407 Rocket - Pass Details

Date: 15 November 2025
Orbit: 740 x 780 km, 74.0° (Epoch: 11 December)

Event Time Altitude Azimuth Distance (km) Brightness Sun altitude
Exits shadow 10:33:47 70° 77° (ENE) 787 3.6 -28.4°
Drops below altitude 10° 10:38:50 10° 157° (SSE) 2,254 6.2 -27.3°
Sets 10:41:12 0° 160° (SSE) 3,179 7.0 -26.8°
